Погода в Шелюгах

Украина / Запорожская область     46°33′23″N   35°13′44″E
темп.,
°C
ветер,
м/с
пор.,
м/с
влажн.,
%
обл.,
%
осадки,
мм/ч
давл.,
гПа
погр.,
м
13 апреля, вт
вт1300:00+8юв339189 0.0 102242
03:00+8ююв229314 0.0 102128
06:00+7юв2292100 0.0 102226
09:00+10ююв338183 0.0 1022349
12:00+11юв437591 0.0 1021622
15:00+11ююв447550 0.0 1021483
18:00+10юв3482100 0.0 1021261
21:00+9юв3486100 0.0 1021114
14 апреля, ср
ср1400:00+9ююв3387100 0.0 102036
03:00+8юв458723 0.0 101994
06:00+7юв469179 0.0 1018137
09:00+10ююв577492 0.0 1018360
12:00+11ююв68688 0.0 1018478
15:00+11юв67694 0.0 1017502
18:00+10юв5776100 0.0 1016297
21:00+9ююв51082100 0.0 1016293
15 апреля, чт
чт1500:00+9ююв61086100 0.0 1015315
03:00+8ююв499266 0.0 1014215
06:00+8юв46935 0.0 1013139
09:00+9ю3589100 0.1 1014202
12:00+10ю5786100 0.3 1014431
15:00+12юз8106219 0.4 1014969
18:00+11зюз577221 0.0 1014703
21:00+8зюз47865 0.1 1015299
16 апреля, пт
пт1600:00+6зюз48845 0.0 1015251
03:00+6ююз348032 0.0 1015134
06:00+7ююз347565 0.0 1015102
09:00+8ю6872100 0.0 1016431
12:00+9ю686914 0.0 1016629
15:00+10ююв66676 0.1 1016829
18:00+10ююв467150 0.0 1017350
21:00+8ююв45835 0.0 101785
17 апреля, сб
сб1700:00+7з47834 0.0 1018157
03:00+5зюз34904 0.0 1019108
06:00+5зюз22885 0.0 101966
09:00+9ююз33705 0.0 1020436
12:00+10ю556631 0.0 1020861
15:00+10ююв556582 0.0 1021468
18:00+10ююв346578 0.0 1020225
21:00+9ююв3472100 0.0 102199